UAL507 KSFO-LIRF

Flight info

Callsign UAL507
Flight time N/A
Altitude 35000
Route SNTNA2 ORRCA DCT FMG J94 LLC DCT DLN DCT HILGR DCT GGW DCT 50N101W 52N090W/N0488F370 DCT PIGLA DCT MCKEE/M083F370 DCT TOXIT DCT 60N050W/M083F390 61N040W 61N030W 60N020W DCT GOMUP/N0471F390 DCT GINGA DCT DONIB DCT DIMLI DCT DUFFY DCT RINGA DCT MAKUX DCT SOSIM L15 KEPAD L151 DISIT/N0486F410 L151 MID UL612 OGULO DCT OKASI DCT OKEKO DCT MOU DCT MADIV DCT MOKIP DCT TUFTA DCT KOGAS DCT MEDAM DCT NITAM DCT MOGBO DCT ELB/N0476F400 DCT ELKAP
Aircraft B772/H-SDE2E3FGHIJ5LORVWXY/LB1D1

Departure

Time N/A
Airport San Francisco International Airport (KSFO)

Arrival

Time 2026-05-04 14:44
Airport Rome–Fiumicino Leonardo da Vinci International Airport (LIRF)
Time Latitude Longitude Altitude Speed Heading
2026-05-04 14:23 42.72028 10.58334 31539 ft 506 kts 76°
2026-05-04 14:23 42.72599 10.62780 30609 ft 507 kts 85°
2026-05-04 14:24 42.72507 10.67586 29452 ft 512 kts 99°
2026-05-04 14:24 42.71501 10.72208 28682 ft 511 kts 115°
2026-05-04 14:24 42.69644 10.76281 28515 ft 504 kts 130°
2026-05-04 14:24 42.67248 10.79702 28321 ft 495 kts 139°
2026-05-04 14:25 42.64798 10.82907 27854 ft 484 kts 137°
2026-05-04 14:25 42.60636 10.89692 27668 ft 453 kts 128°
2026-05-04 14:25 42.58879 10.93171 27499 ft 441 kts 125°
2026-05-04 14:26 42.57272 10.96646 27265 ft 431 kts 124°
2026-05-04 14:26 42.55728 11.00078 26868 ft 417 kts 124°
2026-05-04 14:26 42.54234 11.03347 25991 ft 402 kts 124°
2026-05-04 14:26 42.52751 11.06555 24647 ft 400 kts 124°
2026-05-04 14:27 42.51280 11.09724 23420 ft 395 kts 124°
2026-05-04 14:27 42.49829 11.12844 22268 ft 389 kts 124°
2026-05-04 14:27 42.48363 11.15994 21426 ft 398 kts 124°
2026-05-04 14:27 42.46901 11.19131 21271 ft 387 kts 124°
2026-05-04 14:28 42.45517 11.22189 21000 ft 375 kts 121°
2026-05-04 14:28 42.44458 11.25323 20143 ft 362 kts 111°
2026-05-04 14:28 42.43746 11.28680 19343 ft 375 kts 105°
2026-05-04 14:28 42.43239 11.32141 18860 ft 375 kts 101°
2026-05-04 14:29 42.42531 11.39047 18031 ft 370 kts 99°
2026-05-04 14:29 42.41780 11.45900 17219 ft 365 kts 100°
2026-05-04 14:30 42.41392 11.49283 16818 ft 362 kts 100°
2026-05-04 14:30 42.40964 11.52624 16403 ft 356 kts 104°
2026-05-04 14:30 42.38947 11.58362 14363 ft 334 kts 128°
2026-05-04 14:31 42.37542 11.60841 13261 ft 328 kts 129°
2026-05-04 14:31 42.34793 11.65545 11318 ft 308 kts 131°
2026-05-04 14:32 42.32238 11.69838 9996 ft 278 kts 131°
2026-05-04 14:32 42.31039 11.71885 9701 ft 276 kts 131°
2026-05-04 14:32 42.29866 11.73882 9473 ft 274 kts 131°
2026-05-04 14:32 42.28690 11.75872 9296 ft 268 kts 131°
2026-05-04 14:33 42.27517 11.77849 9053 ft 264 kts 132°
2026-05-04 14:33 42.26364 11.79783 8737 ft 264 kts 132°
2026-05-04 14:33 42.25231 11.81680 8430 ft 263 kts 132°
2026-05-04 14:33 42.24066 11.83626 8110 ft 264 kts 132°
2026-05-04 14:34 42.22909 11.85558 7789 ft 263 kts 132°
2026-05-04 14:34 42.21775 11.87452 7483 ft 263 kts 131°
2026-05-04 14:34 42.20629 11.89364 7173 ft 261 kts 131°
2026-05-04 14:34 42.19490 11.91265 6868 ft 260 kts 131°
2026-05-04 14:35 42.18350 11.93164 6549 ft 260 kts 131°
2026-05-04 14:35 42.17213 11.95059 6236 ft 260 kts 131°
2026-05-04 14:35 42.16087 11.96937 6062 ft 253 kts 131°
2026-05-04 14:35 42.15004 11.98742 5992 ft 243 kts 131°
2026-05-04 14:36 42.13963 12.00475 5932 ft 233 kts 131°
2026-05-04 14:36 42.12975 12.02122 5889 ft 220 kts 131°
2026-05-04 14:36 42.12023 12.03709 5810 ft 217 kts 131°
2026-05-04 14:36 42.11039 12.05294 5587 ft 222 kts 134°
2026-05-04 14:37 42.10007 12.06813 5358 ft 218 kts 135°
2026-05-04 14:37 42.08968 12.08288 5139 ft 217 kts 135°
2026-05-04 14:37 42.07931 12.09777 4913 ft 217 kts 135°
2026-05-04 14:37 42.06897 12.11249 4687 ft 216 kts 137°
2026-05-04 14:38 42.05708 12.12476 4461 ft 215 kts 151°
2026-05-04 14:38 42.04345 12.13253 4236 ft 212 kts 161°
2026-05-04 14:38 42.02940 12.13805 4011 ft 209 kts 165°
2026-05-04 14:38 42.01544 12.14307 3832 ft 203 kts 165°
2026-05-04 14:39 42.00210 12.14824 3623 ft 198 kts 164°
2026-05-04 14:39 41.98902 12.15355 3391 ft 195 kts 163°
2026-05-04 14:39 41.98045 12.15709 3240 ft 193 kts 163°
2026-05-04 14:40 41.95128 12.16931 2768 ft 182 kts 163°
2026-05-04 14:40 41.94336 12.17264 2616 ft 179 kts 163°
2026-05-04 14:40 41.93162 12.17758 2378 ft 174 kts 163°
2026-05-04 14:40 41.92050 12.18226 2145 ft 161 kts 163°
2026-05-04 14:41 41.91027 12.18657 1939 ft 147 kts 163°
2026-05-04 14:41 41.90103 12.19045 1755 ft 130 kts 163°
2026-05-04 14:41 41.88469 12.19732 1430 ft 121 kts 163°
2026-05-04 14:42 41.86835 12.20419 1111 ft 124 kts 164°
2026-05-04 14:42 41.86016 12.20763 944 ft 123 kts 164°
2026-05-04 14:42 41.85196 12.21107 781 ft 123 kts 164°
2026-05-04 14:43 41.84381 12.21449 617 ft 123 kts 164°
2026-05-04 14:43 41.83564 12.21783 442 ft 123 kts 165°
2026-05-04 14:43 41.82747 12.22124 282 ft 122 kts 163°
2026-05-04 14:43 41.81941 12.22480 138 ft 121 kts 164°
2026-05-04 14:44 41.81148 12.22809 33 ft 116 kts 164°
2026-05-04 14:44 41.80460 12.23094 28 ft 87 kts 162°
2026-05-04 14:44 41.80007 12.23283 28 ft 50 kts 162°
2026-05-04 14:44 41.79786 12.23378 28 ft 24 kts 162°
2026-05-04 14:45 41.79635 12.23442 28 ft 22 kts 162°
2026-05-04 14:45 41.79510 12.23527 28 ft 20 kts 139°
2026-05-04 14:45 41.79420 12.23656 28 ft 17 kts 134°
2026-05-04 14:45 41.79361 12.23744 28 ft 8 kts 130°
2026-05-04 14:46 41.79336 12.23784 28 ft 5 kts 130°
2026-05-04 14:46 41.79332 12.23865 28 ft 15 kts 47°
2026-05-04 14:46 41.79416 12.23867 28 ft 13 kts 339°
2026-05-04 14:46 41.79515 12.23820 28 ft 17 kts 342°
2026-05-04 14:47 41.79637 12.23772 28 ft 19 kts 360°
2026-05-04 14:47 41.79698 12.23887 28 ft 18 kts 72°
2026-05-04 14:47 41.79742 12.24050 28 ft 18 kts 69°
2026-05-04 14:47 41.79752 12.24155 28 ft 9 kts 122°
2026-05-04 14:48 41.79711 12.24177 28 ft 6 kts 168°
2026-05-04 14:48 41.79682 12.24186 28 ft 2 kts 165°
2026-05-04 14:48 41.79680 12.24187 28 ft 0 kts 162°